FW0288 Weather Reports


time (UTC)temp
C
wind
direction
speed
KPH
gust
KPH
rain 1hr
cm
rain 24hr
cm
rain mn
cm
humidity
%
barometer
mb
20260510030029 10 355 0.0 4.8 0.00 0.00 0.00 67 1012.8
20260510024527 10 300 0.0 6.4 0.00 0.00 0.00 67 1011.8
20260510023022 10 336 1.6 14.5 0.00 0.00 0.00 67 1011.1
20260510021532 10 290 1.6 11.3 0.00 0.00 0.00 68 1010.4
20260510020022 11 298 0.0 17.7 0.00 0.00 0.00 67 1010.1
20260510014517 11 311 1.6 17.7 0.00 0.00 0.00 65 1009.7
20260510013012 12 360 1.6 25.7 0.00 0.00 0.00 64 1009.1
20260510011510 12 360 1.6 14.5 0.00 0.00 0.00 61 1008.2
20260510010006 13 360 4.8 32.2 0.00 0.00 0.00 59 1007.1
20260510004504 14 360 1.6 27.4 0.00 0.00 0.00 54 1006.2
20260510003003 18 360 12.9 48.3 0.00 0.00 0.00 40 1004.8
20260510001505 21 360 1.6 9.7 0.00 0.00 0.00 27 1003.4
20260510000001 22 360 1.6 9.7 0.00 0.00 0.00 26 1003.4
20260509234503 22 360 1.6 6.4 0.00 0.00 0.00 25 1003.0
20260509233100 22 360 1.6 12.9 0.00 0.00 0.00 23 1002.8
20260509231600 22 5 1.6 12.9 0.00 0.00 0.00 25 1002.7
20260509230107 23 360 1.6 12.9 0.00 0.00 0.00 23 1002.5
20260509224558 22 41 1.6 16.1 0.00 0.00 0.00 26 1002.4
20260509223100 22 360 0.0 8.0 0.00 0.00 0.00 23 1002.4
20260509221557 22 342 3.2 16.1 0.00 0.00 0.00 22 1002.1
20260509214554 22 360 3.2 14.5 0.00 0.00 0.00 24 1002.2
20260509213053 22 360 3.2 14.5 0.00 0.00 0.00 25 1002.3
20260509211554 22 360 4.8 20.9 0.00 0.00 0.00 24 1002.4
20260509210055 21 360 1.6 19.3 0.00 0.00 0.00 25 1002.6
20260509204558 22 360 4.8 19.3 0.00 0.00 0.00 26 1003.0
20260509203046 22 360 1.6 14.5 0.00 0.00 0.00 23 1003.1
20260509201544 21 360 9.7 30.6 0.00 0.00 0.00 25 1003.4
20260509200044 22 360 1.6 14.5 0.00 0.00 0.00 27 1003.7
20260509194544 23 22 1.6 8.0 0.00 0.00 0.00 21 1003.9
20260509193044 21 360 3.2 8.0 0.00 0.00 0.00 25 1003.9
20260509191539 22 355 1.6 8.0 0.00 0.00 0.00 24 1003.9
20260509190037 23 297 1.6 9.7 0.00 0.00 0.00 23 1004.2
20260509184538 22 360 0.0 14.5 0.00 0.00 0.00 28 1004.3
20260509183034 22 338 3.2 17.7 0.00 0.00 0.00 25 1004.4
20260509181533 21 36 3.2 9.7 0.00 0.00 0.00 25 1004.4
20260509180032 21 360 3.2 17.7 0.00 0.00 0.00 27 1004.6
20260509174532 22 355 0.0 8.0 0.00 0.00 0.00 18 1004.5
20260509173033 22 20 1.6 16.1 0.00 0.00 0.00 16 1004.7
20260509171527 22 342 1.6 16.1 0.00 0.00 0.00 18 1004.6
20260509170024 22 93 0.0 4.8 0.00 0.00 0.00 18 1004.6
20260509164520 21 360 0.0 14.5 0.00 0.00 0.00 21 1004.6
20260509163020 21 360 0.0 9.7 0.00 0.00 0.00 27 1004.7
20260509161514 21 49 0.0 6.4 0.00 0.00 0.00 18 1004.7
20260509160010 20 360 0.0 16.1 0.00 0.00 0.00 24 1004.6
20260509154505 21 44 0.0 14.5 0.00 0.00 0.00 22 1004.7
20260509153103 21 360 0.0 0.0 0.00 0.00 0.00 26 1004.9
20260509151558 19 110 0.0 1.6 0.00 0.00 0.00 30 1005.2
20260509150052 20 360 0.0 0.0 0.00 0.00 0.00 29 1005.4
20260509144605 20 268 0.0 1.6 0.00 0.00 0.00 25 1005.5
20260509143044 17 268 0.0 0.0 0.00 0.00 0.00 30 1005.5
20260509141542 17 268 0.0 0.0 0.00 0.00 0.00 30 1005.5
20260509140056 16 279 0.0 0.0 0.00 0.00 0.00 32 1005.5
20260509134535 15 360 0.0 6.4 0.00 0.00 0.00 35 1005.5
20260509133033 15 252 0.0 6.4 0.00 0.00 0.00 32 1005.5
20260509131540 15 360 0.0 6.4 0.00 0.00 0.00 36 1005.4
20260509130032 13 244 0.0 3.2 0.00 0.00 0.00 39 1005.2
20260509124529 13 193 0.0 4.8 0.00 0.00 0.00 42 1005.0
20260509123026 13 267 0.0 1.6 0.00 0.00 0.00 39 1005.0
20260509121526 14 267 0.0 0.0 0.00 0.00 0.00 37 1004.8
20260509120022 15 267 0.0 4.8 0.00 0.00 0.00 35 1004.6
20260509114521 15 360 0.0 9.7 0.00 0.00 0.00 34 1004.4
20260509113019 15 360 1.6 16.1 0.00 0.00 0.00 34 1004.2
20260509111519 16 360 1.6 14.5 0.00 0.00 0.00 33 1004.2
20260509110018 15 281 1.6 14.5 0.00 0.00 0.00 34 1004.2
20260509104518 15 360 0.0 9.7 0.00 0.03 0.00 34 1004.3
20260509103016 15 360 0.0 6.4 0.00 0.03 0.00 34 1004.3
20260509101518 15 360 1.6 9.7 0.00 0.03 0.00 34 1004.3
20260509100015 15 269 0.0 11.3 0.00 0.03 0.00 34 1004.4
20260509094513 15 360 3.2 16.1 0.00 0.03 0.00 35 1004.5
20260509093011 15 257 0.0 11.3 0.00 0.03 0.00 37 1004.4
20260509091507 10 272 0.0 4.8 0.00 0.03 0.00 57 1004.2
20260509090004 9 259 0.0 0.0 0.00 0.03 0.00 68 1004.2
20260509084502 9 259 0.0 0.0 0.00 0.03 0.00 68 1004.2
20260509083101 10 258 0.0 0.0 0.00 0.03 0.00 66 1004.2
20260509081555 11 258 0.0 0.0 0.00 0.03 0.00 63 1004.4
20260509080059 11 258 0.0 0.0 0.00 0.03 0.00 63 1004.5
20260509074552 11 260 0.0 1.6 0.00 0.03 0.00 62 1004.6
20260509073049 12 260 0.0 0.0 0.00 0.03 0.00 60 1004.9
20260509071549 12 261 0.0 3.2 0.00 0.03 0.00 58 1005.1
20260509070046 12 261 0.0 0.0 0.00 0.03 0.00 56 1005.0
20260509064545 12 280 0.0 3.2 0.00 0.03 0.00 59 1005.0
20260509063039 12 360 0.0 1.6 0.00 0.03 0.00 60 1005.0
20260509061542 12 192 0.0 1.6 0.00 0.03 0.00 60 1005.0
20260509060037 12 244 0.0 0.0 0.00 0.03 0.00 60 1005.3
20260509054533 13 360 0.0 6.4 0.00 0.03 0.03 58 1005.4
20260509053044 13 172 0.0 1.6 0.00 0.03 0.03 58 1005.7
20260509051530 13 173 0.0 0.0 0.00 0.03 0.03 57 1006.0
20260509050031 13 173 0.0 4.8 0.00 0.03 0.03 56 1006.1
20260509044529 13 112 0.0 0.0 0.00 0.03 0.03 56 1006.3
20260509043028 14 113 0.0 0.0 0.00 0.03 0.03 54 1006.5
20260509041536 14 360 0.0 0.0 0.00 0.03 0.03 53 1006.8
20260509040029 15 109 0.0 0.0 0.00 0.03 0.03 52 1006.9
20260509034528 15 360 0.0 0.0 0.00 0.03 0.03 51 1006.9
20260509033027 14 360 0.0 4.8 0.00 0.03 0.03 55 1006.9
20260509031526 14 360 0.0 0.0 0.00 0.03 0.03 56 1006.9